Theta_e
326 326 326 331 330 330 323 321 326 321 319 322 325 330 332 330 331 331 329 329 326 323 323 321 320 321 319 317 316 314 312 310 310 310 311 312 313 313 315 313 320 320 324
322 321 322 322 323 323 323 325 327 329 330 331 332 331 331 330 329 328 328 329 325 322 322 322 321 322 318 318 316 314 314 312 312 311 310 310 311 313 314 311 314 317 316
322 320 320 320 321 320 322 323 324 324 324 322 324 324 325 326 326 328 329 327 325 324 322 320 321 321 319 318 317 318 317 318 316 314 314 311 311 311 310 310 313 308 316
314 313 311 312 316 315 316 316 315 316 315 315 316 319 319 319 321 321 319 317 317 318 320 321 321 320 320 320 319 319 318 317 316 315 314 313 310 311 309 308 306 306 306
309 308 308 309 309 309 309 310 312 312 313 315 315 315 315 315 315 310 311 309 308 309 311 312 312 314 317 315 315 315 314 314 315 313 312 312 309 305 303 304 303 303 304
307 306 308 307 307 307 308 307 308 309 310 310 310 311 310 313 307 307 307 306 305 306 305 307 308 310 310 310 310 310 310 309 310 312 311 310 310 304 304 303 302 301 301
307 308 308 307 306 305 306 305 306 306 306 306 307 307 307 307 304 299 301 302 303 302 302 303 305 309 308 308 307 307 306 306 306 305 305 306 307 309 310 304 303 306 306
306 306 306 305 304 303 303 302 302 303 303 303 304 304 304 306 298 297 298 298 298 299 300 301 301 302 304 304 303 303 303 302 302 305 303 305 307 309 310 311 310 309 309
305 304 304 304 302 302 301 301 301 301 301 301 302 301 300 300 299 297 297 297 297 297 299 300 301 301 299 297 300 300 300 302 305 303 302 301 300 299 305 311 309 306 304
303 303 303 302 301 300 300 300 300 299 299 301 300 300 300 297 297 296 296 297 296 296 298 298 300 299 297 296 297 298 298 300 302 302 302 302 304 306 302 310 310 303 303
302 302 301 300 299 297 296 296 296 295 295 295 296 296 296 297 298 296 295 296 295 295 295 295 297 296 295 294 294 297 297 299 300 302 301 301 303 307 310 308 308 308 306
300 298 295 294 296 296 292 292 292 292 292 293 292 293 296 298 298 297 295 295 296 295 295 296 297 294 292 293 293 294 294 295 298 299 299 299 300 304 308 311 312 312 313
294 293 292 292 292 292 290 289 290 290 290 291 292 293 295 297 295 296 295 294 295 295 296 296 294 293 293 294 294 294 294 296 296 296 297 299 303 306 308 308 310 312 310
289 289 289 288 289 288 289 290 291 290 291 290 291 292 293 294 295 296 296 296 295 295 295 295 295 294 293 294 294 296 299 299 298 298 299 301 303 304 304 306 303 304 303
287 287 286 286 286 287 289 290 290 291 291 290 291 292 292 292 294 293 292 292 292 292 292 292 291 292 292 293 295 298 301 303 302 301 300 301 301 304 304 303 303 303 305
285 286 285 286 287 288 287 289 292 291 292 291 291 291 293 292 291 291 290 290 290 290 290 289 290 291 291 292 294 297 301 302 302 303 302 302 301 302 304 305 306 308 308
285 285 286 287 286 287 289 289 289 291 293 292 291 291 291 290 290 289 289 289 289 290 289 290 290 291 291 293 295 299 300 302 305 304 304 303 304 306 303 307 309 309 309
286 287 286 286 288 289 289 290 290 289 289 291 291 290 290 289 288 289 289 290 292 292 290 291 291 292 293 294 296 299 301 302 303 305 306 307 308 308 308 308 309 309 309
287 287 288 289 289 289 289 287 287 288 288 288 289 289 288 288 288 289 290 292 293 293 293 294 295 296 296 298 300 302 302 302 304 306 309 309 310 309 309 309 309 296 302
288 289 289 288 287 287 286 285 285 285 286 286 286 286 286 286 286 287 289 290 291 293 294 294 296 297 298 300 302 303 304 305 306 308 309 310 310 310 310 309 310 310 310
288 289 286 288 287 287 286 285 285 285 284 284 284 286 285 285 285 286 286 288 289 290 293 295 295 297 300 302 302 302 303 307 308 308 309 309 310 309 309 309 309 309 310
288 287 287 286 286 286 286 286 285 285 285 285 285 285 285 285 285 285 286 287 288 290 293 296 297 299 300 302 302 302 305 305 306 307 309 309 309 309 310 309 310 310 311
289 288 287 287 287 286 286 286 286 286 286 286 286 285 284 284 284 285 285 286 288 289 292 294 298 299 300 301 303 302 300 301 302 303 305 307 308 309 310 310 310 310 310
289 287 287 286 286 285 285 284 285 286 285 285 286 285 284 284 284 284 285 286 287 288 290 292 295 297 300 301 300 303 299 296 300 301 303 303 304 305 308 311 311 311 312
287 288 287 288 286 286 286 286 285 286 285 284 284 285 285 284 284 285 285 285 286 286 288 290 292 293 296 293 292 293 290 287 292 289 300 303 304 305 306 313 313 313 311
285 286 285 287 286 286 285 284 283 284 283 284 284 284 284 284 284 284 285 285 285 285 286 288 288 290 292 290 289 287 286 286 288 287 295 302 303 303 306 313 314 313 311
Wind_Speed
12 13 12 9 7 6 4 3 4 3 1 3 6 13 11 7 5 6 5 2 4 5 4 6 7 7 6 5 4 5 4 4 9 4 4 3 4 5 7 4 5 5 5
8 8 8 8 7 7 7 9 7 7 7 12 9 8 7 6 5 6 7 6 7 8 8 9 11 9 9 8 6 7 7 6 7 15 5 4 6 6 5 4 6 4 5
10 9 8 8 7 6 7 6 7 6 4 2 5 5 6 6 5 5 6 7 7 9 11 11 12 11 12 8 8 9 8 9 9 11 10 5 4 4 4 4 6 4 2
9 8 8 8 9 7 7 6 7 6 7 7 7 6 6 5 4 3 3 4 4 5 6 6 8 9 9 10 11 14 12 11 10 11 11 9 5 6 4 4 3 1 2
8 7 6 6 6 6 7 7 7 7 6 6 7 7 7 7 6 6 7 5 5 6 6 6 6 7 10 8 6 7 6 6 7 8 9 7 5 4 5 5 4 3 4
7 7 6 6 5 5 6 6 6 6 5 5 5 4 4 4 9 11 9 6 5 5 6 6 7 9 10 11 9 7 6 6 9 8 9 11 12 5 4 5 4 3 3
7 7 7 7 7 7 6 7 7 7 6 7 7 6 7 6 9 9 10 5 5 6 6 6 7 9 8 9 12 12 10 8 7 5 8 8 8 7 8 6 5 4 4
6 6 7 7 7 7 7 7 7 5 5 5 5 6 6 6 8 7 9 5 5 6 6 7 8 9 7 6 8 10 9 7 7 8 8 8 9 8 7 9 9 5 2
6 6 6 6 7 7 7 7 6 6 6 5 5 6 6 6 5 6 9 5 5 7 9 11 11 11 12 15 11 13 14 14 11 14 16 17 16 16 16 6 6 5 5
5 5 5 6 6 6 7 8 5 5 6 6 7 6 8 7 8 8 4 6 9 8 9 9 11 11 10 9 6 8 10 10 10 9 7 8 12 11 15 12 10 7 4
4 4 5 10 8 7 7 5 6 6 7 6 7 6 6 6 10 12 13 6 6 7 7 8 8 12 14 10 8 8 11 10 12 10 8 8 10 10 7 7 8 7 6
9 11 8 7 7 7 7 6 7 6 8 8 7 9 7 7 5 8 13 11 11 8 8 8 9 10 10 13 11 15 16 15 9 9 9 9 9 10 8 7 8 7 9
10 8 7 7 7 6 7 8 8 6 7 8 7 8 7 7 7 10 12 14 9 7 8 11 14 12 13 14 19 17 17 9 8 8 9 10 9 9 9 6 7 9 8
9 8 8 7 8 6 5 6 6 6 7 7 7 7 8 8 8 7 7 8 12 11 13 10 11 12 16 17 16 12 9 8 8 9 9 9 8 6 4 4 4 3 3
6 6 5 4 6 7 6 6 7 8 7 7 7 8 8 9 8 12 13 9 9 12 14 9 7 6 8 9 9 9 9 7 6 7 8 9 8 7 6 3 3 3 7
6 6 6 6 6 6 7 7 9 14 17 15 15 10 6 10 12 16 18 19 18 15 4 4 5 5 7 9 9 9 8 7 7 9 8 8 8 8 8 6 8 9 8
6 7 5 6 6 6 6 6 7 6 9 11 6 8 8 13 16 19 18 15 13 8 3 4 5 6 7 8 8 9 9 8 8 7 7 7 7 9 11 9 6 6 8
7 12 6 5 5 5 5 5 5 6 7 5 7 9 10 15 19 18 17 12 5 3 3 5 6 6 7 8 9 8 9 9 9 8 7 6 4 3 1 4 2 1 5
6 4 5 5 4 6 5 5 5 6 7 7 7 6 10 17 15 14 13 7 6 5 5 6 5 6 7 8 7 8 10 9 8 7 3 3 3 1 4 5 3 3 3
5 6 4 3 4 4 4 5 5 5 5 6 6 7 9 8 8 8 8 8 8 7 6 5 6 7 8 8 7 8 8 7 7 5 2 2 3 2 4 5 6 5 5
5 4 5 4 5 5 5 6 6 5 6 6 6 7 12 7 8 8 8 8 8 8 9 6 6 7 7 7 9 10 9 7 6 4 2 3 3 2 2 1 4 6 5
5 5 5 5 5 5 5 5 5 6 6 6 7 8 11 7 7 8 8 8 9 8 8 8 6 6 7 7 9 10 9 9 9 9 4 4 4 5 4 5 5 5 4
6 7 7 7 7 7 7 8 8 9 9 8 8 8 9 8 9 9 9 9 9 9 9 8 9 8 7 8 8 5 6 7 7 8 9 7 6 6 4 3 5 5 1
5 6 6 6 6 6 6 6 7 9 10 10 9 9 9 9 9 11 9 9 9 9 9 9 8 12 12 9 10 8 7 8 7 6 6 6 7 7 8 8 4 10 5
4 3 5 6 6 7 8 9 9 9 9 10 9 9 10 10 10 11 10 10 9 9 11 10 10 14 13 16 16 17 16 14 9 8 7 8 12 13 12 8 2 6 10
4 4 5 6 7 8 8 8 9 10 10 10 10 10 10 11 11 11 10 12 11 10 11 9 13 17 16 13 17 17 15 15 12 12 7 4 6 9 9 9 6 4 10
Wind_Direction
56 47 40 23 29 46 52 41 44 127 341 109 167 212 235 226 174 147 166 150 163 216 241 226 229 227 232 230 225 221 233 224 272 273 221 249 269 272 287 317 282 278 270
65 60 56 51 35 50 61 57 43 56 26 35 348 219 209 170 156 189 194 192 212 211 218 220 231 235 235 230 227 235 240 235 246 272 255 234 232 247 225 274 277 277 265
58 41 31 43 46 36 49 34 45 40 42 75 84 22 10 9 332 296 253 248 238 242 243 230 230 225 236 235 231 239 237 241 243 259 266 222 224 233 269 263 265 271 290
34 41 33 20 17 24 35 41 40 35 26 17 17 13 12 1 339 319 24 32 3 333 319 309 293 273 256 246 245 245 243 244 247 254 261 264 222 238 215 220 256 258 288
29 19 18 23 19 13 12 9 10 14 13 17 8 0 356 352 341 2 354 347 332 313 308 292 280 281 290 269 275 279 267 253 252 259 259 256 237 219 204 211 202 222 240
14 356 348 351 336 339 357 21 32 24 18 20 357 342 331 315 320 323 328 321 316 297 288 289 280 290 291 293 303 280 243 295 283 266 263 259 259 213 209 211 208 198 260
3 348 349 357 18 20 14 15 11 3 1 353 343 344 333 326 324 28 27 7 347 326 305 293 295 295 295 293 290 296 309 289 228 236 270 268 268 260 266 243 215 196 195
354 351 5 14 4 0 2 0 356 354 347 333 323 315 313 330 84 40 16 358 324 305 302 297 291 292 286 296 291 287 275 261 266 274 270 271 264 261 240 240 215 193 202
358 358 8 2 357 359 355 337 321 324 332 330 343 354 342 324 350 334 332 316 295 293 299 294 283 281 280 273 293 290 287 282 268 243 250 259 261 266 255 216 215 209 233
15 359 357 3 359 340 345 2 353 349 335 342 339 332 328 323 303 313 332 304 301 301 299 290 291 292 289 276 274 289 294 288 275 269 268 278 273 256 235 220 212 186 205
10 1 4 28 16 26 2 359 350 346 339 332 314 301 297 305 303 298 300 301 289 292 290 292 287 282 282 276 264 279 274 284 292 289 281 281 278 263 234 214 210 191 203
21 42 34 24 13 7 4 342 340 333 329 320 322 308 294 289 297 341 334 304 290 287 289 289 283 300 309 301 296 282 277 278 267 265 269 269 267 260 238 208 207 223 228
26 22 16 10 2 3 344 338 323 317 314 303 308 302 315 324 311 298 297 288 295 298 291 288 286 282 290 295 287 282 281 272 259 251 256 260 263 254 243 230 202 209 212
10 359 353 348 339 344 322 312 308 314 307 306 300 303 306 306 305 303 308 313 310 304 298 286 284 288 280 276 281 280 275 255 243 246 251 255 262 260 248 238 225 211 223
350 330 326 330 321 311 305 305 296 288 279 286 288 294 299 301 311 317 306 304 299 291 296 284 280 279 289 288 287 280 278 266 245 243 246 253 253 253 239 193 215 232 244
331 327 313 309 305 306 298 292 274 263 274 274 270 273 297 294 308 314 311 307 299 295 282 273 269 272 281 288 287 289 293 280 271 266 247 246 247 242 244 233 236 229 216
309 302 297 298 289 283 293 300 314 314 291 299 352 345 340 327 322 319 312 309 302 315 282 285 280 280 280 284 287 287 296 291 287 272 251 247 248 255 237 230 212 225 222
294 295 292 283 289 297 295 309 319 333 325 340 356 346 340 332 328 325 321 317 312 292 267 281 286 286 294 296 295 297 298 294 293 276 261 239 209 221 298 188 174 331 159
306 299 312 316 351 5 2 358 345 343 346 344 332 342 341 339 329 330 328 338 318 316 310 313 305 296 292 297 295 287 287 289 285 291 286 133 139 182 257 236 224 68 65
306 318 324 356 5 10 9 3 359 354 348 341 346 345 341 337 347 345 343 341 336 327 318 318 318 307 304 310 305 304 310 302 299 312 337 167 136 12 44 50 55 51 45
335 42 21 21 16 15 20 17 12 10 4 357 347 342 333 334 339 339 336 334 333 328 325 306 309 311 326 340 327 324 322 314 313 343 73 60 73 41 50 163 151 139 170
55 52 43 40 31 26 18 15 7 2 354 353 356 352 349 354 348 344 341 338 332 328 325 327 308 313 321 331 336 347 360 13 9 2 35 27 14 353 358 359 26 44 358
59 54 48 41 40 33 34 27 21 19 6 11 6 3 4 0 355 351 346 341 337 334 332 336 337 341 346 348 331 334 346 358 5 13 18 14 17 358 340 312 325 312 117
60 56 51 56 49 40 32 20 22 19 17 9 4 6 3 360 357 355 350 346 345 343 341 340 343 353 343 350 351 351 11 354 358 7 21 5 351 352 332 295 218 249 235
41 32 50 41 40 31 31 31 24 23 20 12 5 5 3 1 359 0 357 355 351 351 351 350 354 346 359 9 2 355 349 352 354 343 349 353 346 348 331 338 336 142 145
29 46 50 62 49 39 32 26 25 18 11 15 10 5 4 4 1 360 0 1 358 357 358 355 356 355 4 359 351 339 344 343 351 346 337 347 335 323 335 351 34 92 140